TimeEDT,TemperatureF,Dew PointF,Humidity,Sea Level PressureIn,VisibilityMPH,Wind Direction,Wind SpeedMPH,Gust SpeedMPH,PrecipitationIn,Events,Conditions,WindDirDegrees,DateUTC
12:15 AM,53.6,44.1,70,30.03,10.0,Calm,Calm,-,N/A,,Overcast,0,2013-04-08 04:15:00
12:35 AM,53.4,45.0,73,30.03,10.0,Calm,Calm,-,N/A,,Overcast,0,2013-04-08 04:35:00
12:55 AM,53.1,45.5,75,30.03,10.0,Calm,Calm,-,N/A,,Overcast,0,2013-04-08 04:55:00
1:15 AM,53.8,45.0,72,30.04,10.0,Calm,Calm,-,N/A,,Mostly Cloudy,0,2013-04-08 05:15:00
1:35 AM,51.6,44.1,75,30.04,10.0,Calm,Calm,-,N/A,,Mostly Cloudy,0,2013-04-08 05:35:00
2:15 AM,49.5,43.9,81,30.05,10.0,Calm,Calm,-,N/A,,Mostly Cloudy,0,2013-04-08 06:15:00
2:35 AM,49.5,43.3,79,30.05,10.0,Calm,Calm,-,N/A,,Overcast,0,2013-04-08 06:35:00
2:55 AM,50.4,43.5,77,30.05,10.0,Calm,Calm,-,N/A,,Overcast,0,2013-04-08 06:55:00
3:15 AM,49.5,43.2,79,30.05,10.0,Calm,Calm,-,N/A,,Scattered Clouds,0,2013-04-08 07:15:00
3:35 AM,48.4,42.6,80,30.05,10.0,Calm,Calm,-,N/A,,Clear,0,2013-04-08 07:35:00
3:55 AM,46.9,41.7,82,30.05,10.0,Calm,Calm,-,N/A,,Clear,0,2013-04-08 07:55:00
4:15 AM,45.0,40.1,83,30.05,10.0,WNW,4.6,-,N/A,,Clear,290,2013-04-08 08:15:00
4:35 AM,44.6,39.7,83,30.05,10.0,NW,3.5,-,N/A,,Clear,310,2013-04-08 08:35:00
4:55 AM,44.2,39.9,85,30.06,10.0,Calm,Calm,-,N/A,,Clear,0,2013-04-08 08:55:00
5:15 AM,44.8,40.5,85,30.06,10.0,Calm,Calm,-,N/A,,Clear,0,2013-04-08 09:15:00
5:35 AM,44.6,40.5,85,30.06,10.0,Calm,Calm,-,N/A,,Clear,0,2013-04-08 09:35:00
5:55 AM,44.6,41.2,88,30.06,10.0,Calm,Calm,-,N/A,,Clear,0,2013-04-08 09:55:00
6:15 AM,44.6,41.2,88,30.06,10.0,Calm,Calm,-,N/A,,Clear,0,2013-04-08 10:15:00
6:35 AM,42.6,39.2,88,30.07,10.0,Calm,Calm,-,N/A,,Clear,0,2013-04-08 10:35:00
6:55 AM,44.4,41.5,90,30.07,10.0,Calm,Calm,-,N/A,,Clear,0,2013-04-08 10:55:00
7:15 AM,43.7,40.8,90,30.09,7.0,Calm,Calm,-,N/A,,Clear,0,2013-04-08 11:15:00
7:35 AM,43.7,40.5,88,30.10,10.0,Calm,Calm,-,N/A,,Clear,0,2013-04-08 11:35:00
7:55 AM,46.2,42.8,88,30.10,10.0,Calm,Calm,-,N/A,,Clear,0,2013-04-08 11:55:00
8:15 AM,47.3,43.2,86,30.10,10.0,Calm,Calm,-,N/A,,Clear,0,2013-04-08 12:15:00
8:35 AM,48.7,43.2,81,30.10,10.0,Calm,Calm,-,N/A,,Clear,0,2013-04-08 12:35:00
8:55 AM,50.4,43.9,78,30.10,10.0,Calm,Calm,-,N/A,,Clear,0,2013-04-08 12:55:00
9:15 AM,52.9,44.8,74,30.10,10.0,Calm,Calm,-,N/A,,Clear,0,2013-04-08 13:15:00
9:35 AM,56.5,45.1,66,30.09,10.0,Calm,Calm,-,N/A,,Clear,0,2013-04-08 13:35:00
9:55 AM,59.2,44.4,58,30.09,10.0,Calm,Calm,-,N/A,,Clear,0,2013-04-08 13:55:00
10:15 AM,60.6,44.2,55,30.09,10.0,Calm,Calm,-,N/A,,Clear,0,2013-04-08 14:15:00
10:35 AM,62.1,45.5,55,30.09,10.0,Calm,Calm,-,N/A,,Clear,0,2013-04-08 14:35:00
10:55 AM,63.9,46.0,52,30.07,10.0,Calm,Calm,-,N/A,,Clear,0,2013-04-08 14:55:00
11:15 AM,66.6,46.8,49,30.07,10.0,WNW,3.5,-,N/A,,Scattered Clouds,300,2013-04-08 15:15:00
11:35 AM,68.7,45.1,43,30.07,10.0,Calm,Calm,-,N/A,,Scattered Clouds,0,2013-04-08 15:35:00
11:55 AM,72.0,46.0,40,30.06,10.0,Calm,Calm,-,N/A,,Clear,0,2013-04-08 15:55:00
12:15 PM,75.4,44.8,34,30.05,10.0,NE,3.5,-,N/A,,Clear,50,2013-04-08 16:15:00
12:35 PM,76.5,43.7,31,30.05,10.0,Calm,Calm,-,N/A,,Scattered Clouds,0,2013-04-08 16:35:00
12:55 PM,77.9,41.9,28,30.02,10.0,WSW,17.3,25.3,N/A,,Scattered Clouds,240,2013-04-08 16:55:00
1:15 PM,77.7,43.2,29,30.03,10.0,South,8.1,-,N/A,,Scattered Clouds,190,2013-04-08 17:15:00
1:35 PM,77.7,42.1,28,30.02,10.0,SSW,6.9,-,N/A,,Scattered Clouds,200,2013-04-08 17:35:00
1:55 PM,78.1,42.4,28,30.01,10.0,South,4.6,-,N/A,,Mostly Cloudy,190,2013-04-08 17:55:00
2:15 PM,79.7,42.4,27,29.99,10.0,West,10.4,-,N/A,,Overcast,280,2013-04-08 18:15:00
2:35 PM,79.5,40.6,25,29.98,10.0,South,8.1,16.1,N/A,,Overcast,180,2013-04-08 18:35:00
2:55 PM,79.5,39.7,24,29.98,10.0,South,10.4,17.3,N/A,,Overcast,190,2013-04-08 18:55:00
3:15 PM,80.6,39.7,23,29.97,10.0,South,11.5,18.4,N/A,,Mostly Cloudy,180,2013-04-08 19:15:00
3:35 PM,80.4,40.6,24,29.96,10.0,South,10.4,-,N/A,,Mostly Cloudy,190,2013-04-08 19:35:00
3:55 PM,81.9,40.6,23,29.94,10.0,South,6.9,-,N/A,,Scattered Clouds,180,2013-04-08 19:55:00
4:15 PM,81.9,39.0,22,29.94,10.0,South,11.5,18.4,N/A,,Scattered Clouds,190,2013-04-08 20:15:00
4:35 PM,81.7,39.0,22,29.93,10.0,South,8.1,11.5,N/A,,Scattered Clouds,190,2013-04-08 20:35:00
4:55 PM,82.2,38.7,21,29.93,10.0,SSW,8.1,-,N/A,,Scattered Clouds,200,2013-04-08 20:55:00
5:15 PM,82.0,39.4,22,29.93,10.0,South,8.1,19.6,N/A,,Mostly Cloudy,180,2013-04-08 21:15:00
5:35 PM,81.7,39.0,22,29.93,10.0,SSW,8.1,17.3,N/A,,Mostly Cloudy,200,2013-04-08 21:35:00
5:55 PM,80.6,39.4,23,29.93,10.0,SW,8.1,-,N/A,,Mostly Cloudy,220,2013-04-08 21:55:00
6:15 PM,80.6,39.6,23,29.94,10.0,SW,9.2,-,N/A,,Mostly Cloudy,220,2013-04-08 22:15:00
6:35 PM,79.2,40.5,25,29.94,10.0,SSW,8.1,-,N/A,,Mostly Cloudy,210,2013-04-08 22:35:00
6:55 PM,79.3,40.6,25,29.95,10.0,SW,10.4,-,N/A,,Mostly Cloudy,220,2013-04-08 22:55:00
7:15 PM,79.2,40.8,25,29.96,10.0,SW,5.8,-,N/A,,Overcast,220,2013-04-08 23:15:00
7:35 PM,76.6,42.4,29,29.96,7.0,Calm,Calm,-,N/A,,Overcast,0,2013-04-08 23:35:00
7:55 PM,74.3,43.2,33,29.96,10.0,Calm,Calm,-,N/A,,Overcast,0,2013-04-08 23:55:00
8:15 PM,72.0,44.6,37,29.96,10.0,Calm,Calm,-,N/A,,Mostly Cloudy,0,2013-04-09 00:15:00
8:35 PM,70.9,43.9,38,29.97,10.0,Calm,Calm,-,N/A,,Overcast,0,2013-04-09 00:35:00
8:55 PM,66.9,47.1,49,29.98,10.0,West,3.5,-,N/A,,Mostly Cloudy,260,2013-04-09 00:55:00
9:15 PM,66.7,47.3,50,29.99,10.0,Calm,Calm,-,N/A,,Overcast,0,2013-04-09 01:15:00
9:35 PM,63.7,48.6,58,30.00,10.0,Calm,Calm,-,N/A,,Mostly Cloudy,0,2013-04-09 01:35:00
9:55 PM,65.1,46.9,52,29.99,10.0,Calm,Calm,-,N/A,,Scattered Clouds,0,2013-04-09 01:55:00
10:15 PM,63.5,47.7,56,30.00,10.0,WNW,4.6,-,N/A,,Clear,300,2013-04-09 02:15:00
10:35 PM,62.2,47.8,59,30.00,10.0,WNW,3.5,-,N/A,,Scattered Clouds,290,2013-04-09 02:35:00
10:55 PM,60.8,48.4,64,30.00,10.0,Calm,Calm,-,N/A,,Scattered Clouds,0,2013-04-09 02:55:00
11:15 PM,70.5,46.4,42,30.00,10.0,WSW,10.4,28.8,N/A,,Scattered Clouds,250,2013-04-09 03:15:00
11:35 PM,71.2,46.2,41,30.01,10.0,West,6.9,-,N/A,,Scattered Clouds,260,2013-04-09 03:35:00
11:55 PM,70.2,46.6,43,30.02,10.0,NW,3.5,-,N/A,,Clear,310,2013-04-09 03:55:00